,,Stat6,,Stat2,,Stat8,,Stat9,,Stat10,,Wind1,,Wind1,
time,status,PA1M_AVG,status,PR1M_SUM,status,RH1M_AVG,status,SR1M_AVG,status,TA1M_AVG,status,W1dAve1m,status,W1sAve1m,
2006-10-17, 23:03:00,VALID,916.052,VALID,0,VALID,78.6874,VALID,214.142,VALID,27.3136,VALID,53,VALID,0.523251,
2006-10-17, 23:04:00,VALID,916.086,VALID,0,VALID,79.4333,VALID,208.813,VALID,27.2695,VALID,287,VALID,0.848837,
2006-10-17, 23:05:00,VALID,916.096,VALID,0,VALID,79.329,VALID,209.204,VALID,27.0803,VALID,253,VALID,0.563117,
2006-10-17, 23:06:00,VALID,916.113,VALID,0,VALID,80.1836,VALID,213.025,VALID,26.9334,VALID,262,VALID,0.806895,
2006-10-17, 23:07:00,VALID,916.127,VALID,0,VALID,80.7176,VALID,214.96,VALID,26.9345,VALID,276,VALID,0.860156,
2006-10-17, 23:08:00,VALID,916.136,VALID,0,VALID,81.4247,VALID,207.387,VALID,26.8947,VALID,279,VALID,0.879439,
2006-10-17, 23:09:00,VALID,916.141,VALID,0,VALID,81.9117,VALID,196.366,VALID,26.8892,VALID,252,VALID,0.638081,
2006-10-17, 23:10:00,VALID,916.139,VALID,0,VALID,81.3763,VALID,185.448,VALID,26.8497,VALID,271,VALID,1.38932,
2006-10-17, 23:11:00,VALID,916.141,VALID,0,VALID,81.0635,VALID,169.469,VALID,26.7495,VALID,283,VALID,1.40661,
2006-10-17, 23:12:00,VALID,916.149,VALID,0,VALID,82.1991,VALID,145.475,VALID,26.5401,VALID,277,VALID,1.48401,
2006-10-17, 23:13:00,VALID,916.182,VALID,0,VALID,83.3639,VALID,117.558,VALID,26.4593,VALID,285,VALID,1.46271,
2006-10-17, 23:14:00,VALID,916.195,VALID,0,VALID,83.2837,VALID,96.6379,VALID,26.4464,VALID,266,VALID,1.08371,
2006-10-17, 23:15:00,VALID,916.193,VALID,0,VALID,82.6912,VALID,92.155,VALID,26.3578,VALID,304,VALID,0.713542,
2006-10-17, 23:16:00,VALID,916.199,VALID,0,VALID,82.4712,VALID,98.2001,VALID,26.225,VALID,259,VALID,0.967548,
2006-10-17, 23:17:00,VALID,916.181,VALID,0,VALID,83.0383,VALID,107.353,VALID,26.1148,VALID,323,VALID,0.433866,
2006-10-17, 23:18:00,VALID,916.175,VALID,0,VALID,83.3486,VALID,116.624,VALID,26.1083,VALID,25,VALID,0.286932,
2006-10-17, 23:19:00,VALID,916.165,VALID,0,VALID,83.6881,VALID,131.89,VALID,26.0702,VALID,359,VALID,0.401163,
2006-10-17, 23:20:00,VALID,916.171,VALID,0,VALID,83.2138,VALID,144.439,VALID,25.9342,VALID,81,VALID,0.430233,
2006-10-17, 23:21:00,VALID,916.151,VALID,0,VALID,84.596,VALID,153.727,VALID,25.8728,VALID,44,VALID,0.51598,
2006-10-17, 23:22:00,VALID,916.155,VALID,0,VALID,84.7512,VALID,164.324,VALID,25.8922,VALID,275,VALID,1.40141,
2006-10-17, 23:23:00,VALID,916.147,VALID,0,VALID,84.9762,VALID,174.818,VALID,25.8372,VALID,274,VALID,1.75629,
2006-10-17, 23:24:00,VALID,916.141,VALID,0,VALID,84.5808,VALID,167.703,VALID,25.78,VALID,280,VALID,1.72752,
2006-10-17, 23:25:00,VALID,916.145,VALID,0,VALID,85.3908,VALID,152.573,VALID,25.7571,VALID,287,VALID,1.14748,
2006-10-17, 23:26:00,VALID,916.137,VALID,0,VALID,84.7931,VALID,146.731,VALID,25.7962,VALID,279,VALID,1.36319,
2006-10-17, 23:27:00,VALID,916.151,VALID,0,VALID,84.2832,VALID,147.58,VALID,25.7471,VALID,228,VALID,1.06377,
2006-10-17, 23:28:00,VALID,916.168,VALID,0,VALID,84.5592,VALID,150.145,VALID,25.551,VALID,230,VALID,1.12351,
2006-10-17, 23:29:00,VALID,916.181,VALID,0,VALID,85.5167,VALID,153.965,VALID,25.4508,VALID,253,VALID,0.454654,
2006-10-17, 23:30:00,VALID,916.207,VALID,0,VALID,85.7278,VALID,154.135,VALID,25.4605,VALID,281,VALID,0.494978,
2006-10-17, 23:31:00,VALID,916.226,VALID,0,VALID,86.066,VALID,144.184,VALID,25.4253,VALID,241,VALID,0.763368,
2006-10-17, 23:32:00,VALID,916.217,VALID,0,VALID,85.8244,VALID,134.607,VALID,25.4059,VALID,245,VALID,0.714844,
2006-10-17, 23:33:00,VALID,916.223,VALID,0,VALID,85.7812,VALID,133.316,VALID,25.3348,VALID,248,VALID,0.235328,
2006-10-17, 23:34:00,VALID,916.231,VALID,0,VALID,85.8765,VALID,134.267,VALID,25.3477,VALID,269,VALID,0.700284,
2006-10-17, 23:35:00,VALID,916.243,VALID,0,VALID,86.1741,VALID,132.196,VALID,25.4291,VALID,283,VALID,0.484193,
2006-10-17, 23:36:00,VALID,916.263,VALID,0,VALID,85.949,VALID,125.573,VALID,25.5199,VALID,280,VALID,0.0625,
2006-10-17, 23:37:00,VALID,916.252,VALID,0,VALID,84.844,VALID,120.258,VALID,25.5581,VALID,339,VALID,0.261265,
2006-10-17, 23:38:00,VALID,916.263,VALID,0,VALID,84.9406,VALID,116.76,VALID,25.5445,VALID,7,VALID,0.418899,
2006-10-17, 23:39:00,VALID,916.278,VALID,0,VALID,84.4638,VALID,112.855,VALID,25.4712,VALID,94,VALID,0.409624,
2006-10-17, 23:40:00,VALID,916.288,VALID,0,VALID,85.1072,VALID,107.879,VALID,25.3775,VALID,71,VALID,0.357515,
2006-10-17, 23:41:00,VALID,916.288,VALID,0,VALID,85.6833,VALID,102.072,VALID,25.3002,VALID,77,VALID,0.230378,
2006-10-17, 23:42:00,VALID,916.306,VALID,0,VALID,86.038,VALID,95.4153,VALID,25.2747,VALID,77,VALID,0.136719,
2006-10-17, 23:43:00,VALID,916.31,VALID,0,VALID,86.1321,VALID,93.1059,VALID,25.2779,VALID,77,VALID,0.0426136,
2006-10-17, 23:44:00,VALID,916.357,VALID,0,VALID,86.2326,VALID,97.0285,VALID,25.298,VALID,82,VALID,0.138477,
2006-10-17, 23:45:00,VALID,916.373,VALID,0,VALID,86.1334,VALID,112.464,VALID,25.285,VALID,125,VALID,0.257303,
2006-10-17, 23:46:00,VALID,916.396,VALID,0,VALID,86.6878,VALID,117.185,VALID,25.3257,VALID,257,VALID,0.327363,
2006-10-17, 23:47:00,VALID,916.4,VALID,0,VALID,85.9516,VALID,120.004,VALID,25.3929,VALID,259,VALID,0.207304,
2006-10-17, 23:48:00,VALID,916.381,VALID,0,VALID,85.7049,VALID,120.037,VALID,25.4314,VALID,303,VALID,0.841493,
2006-10-17, 23:49:00,VALID,916.364,VALID,0,VALID,85.9935,VALID,114.026,VALID,25.3949,VALID,268,VALID,1.40171,
2006-10-17, 23:50:00,VALID,916.358,VALID,0,VALID,86.1512,VALID,111.462,VALID,25.2566,VALID,176,VALID,0.457031,
2006-10-17, 23:51:00,VALID,916.338,VALID,0,VALID,85.8905,VALID,109.492,VALID,25.1952,VALID,307,VALID,0.386896,
2006-10-17, 23:52:00,VALID,916.329,VALID,0,VALID,86.3954,VALID,119.919,VALID,25.1923,VALID,284,VALID,0.754687,
2006-10-17, 23:53:00,VALID,916.328,VALID,0,VALID,87.0846,VALID,124.079,VALID,25.2311,VALID,274,VALID,1.19474,
2006-10-17, 23:54:00,VALID,916.368,VALID,0,VALID,86.3915,VALID,116.234,VALID,25.211,VALID,142,VALID,0.709794,
2006-10-17, 23:55:00,VALID,916.377,VALID,0,VALID,85.8498,VALID,113.551,VALID,25.1177,VALID,90,VALID,0.715402,
2006-10-17, 23:56:00,VALID,916.375,VALID,0,VALID,86.4017,VALID,104.059,VALID,25.0275,VALID,298,VALID,0.967862,
2006-10-17, 23:57:00,VALID,916.398,VALID,0,VALID,86.9269,VALID,92.2059,VALID,24.9852,VALID,282,VALID,0.651758,
2006-10-17, 23:58:00,VALID,916.394,VALID,0,VALID,87.2232,VALID,82.2551,VALID,24.9687,VALID,275,VALID,0.526228,
2006-10-17, 23:59:00,VALID,916.394,VALID,0,VALID,87.5067,VALID,74.8006,VALID,24.9241,VALID,302,VALID,0.506696,
